61P/Shajn-Schaldach    [At the time of 2008 Nov. 1]

Epoch 2008 Sept. 11.0 TT = JDT 2454720.5  

T 2008 Sept. 6.07818 TT                                 Nakano

q   2.1080124            (2000.0)            P               Q

n   0.13985536     Peri.  221.61895     +0.90716200     -0.41968179

a   3.6757839      Node   163.12026     +0.40841290     +0.86080577

e   0.4265135      Incl.    6.01016     +0.10127197     +0.28788994

P   7.05

From 327 observations 1985-2008, mean residual 0".93.

   Nongravitational parameters A1 = -0.15 +/- 0.20, A2 = -0.1912 +/- 0.0060,

   A3 = -1.02 +/- 0.08.

Residuals in seconds of arc 

1985/                     011211 704 (1.4-  2.2+)   080923 J29  0.9-  1.0-  

850725 691  0.3+  2.5+    011211 704  1.0-  0.7+    080923 B42  0.3-  0.6-  

850725 691  0.3-  2.4+    011211 704  1.0-  0.0     080923 J29  0.7-  1.0-  

850725 691 (0.6-  3.0+)   011211 704  0.4-  1.9+    080923 B42  1.3+  1.1-  

850726 691 (0.8+  3.6+)   011211 704  0.8-  1.5+    080923 704 (2.7-  0.3+) 

850726 691 (0.7+  3.2+)   2008/                     080923 704  1.2+  1.4+  

850726 691 (0.4-  3.3+)   080606 H06  0.8+  1.6+    080923 H45  0.8+  0.6-  

850814 691  0.7+  1.9+    080607 H06 (4.6+  0.1+)   080923 H45  0.3+  0.6-  

850814 691  1.2+  2.2+    080607 H06  0.1+  1.4-    080923 H45  0.3-  1.1-  

850814 691  0.9-  2.2+    080620 J51  2.0+  1.8-    080923 H45  0.1+  0.8-  

1986/                     080620 J51  1.6+  1.0-    080923 H45  0.5-  1.4-  

861106 691  0.9-  1.8+    080620 J51  1.3+  0.2-    080923 704  1.5+  1.8+  

861106 691  2.1-  2.0+    080701 H06  1.8+  0.4+    080923 704  0.2+  0.7-  

861204 691  0.9-  0.1-    080701 H06 (2.3+  0.0 )   080923 704 (0.2+  2.7-) 

861204 691  0.1-  0.2-    080702 629 (2.7+  0.6-)   080928 B37  0.2+  0.6-  

861227 691  0.1-  0.5+    080702 629 (2.2+  1.2-)   080928 B37  0.1+  0.8-  

861227 691  0.7-  0.1-    080704 J51  1.0+  0.8-    080928 B37  0.1+  0.7-  

1987/                     080704 J51  1.1+  0.5-    080928 B37  0.1+  0.4-  

870129 691  0.9+  0.6-    080704 J51  1.7+  0.5-    081001 900  0.3+  0.8-  

870129 691  1.0+  0.7-    080705 204 (2.1+  0.3-)   081001 900  0.1+  1.0-  

1993/                     080705 J51 (2.2+  0.9-)   081003 367  0.7-  0.4-  

930527 691  0.8-  0.9+    080705 J51  1.6+  1.1-    081003 367  0.5-  1.3-  

930527 691  2.0-  0.5+    080706 204  1.5+  0.9-    081003 367  0.2-  1.0-  

930527 691  1.5-  0.8+    080706 204  1.1+  0.8-    081004 H06  0.3-  0.9-  

930528 691 (2.9-  0.2+)   080713 J47  1.7+  0.5-    081004 H06  0.1-  0.9-  

930528 691  1.0-  0.0     080713 J47  2.0+  0.4-    081004 235  0.2-  0.6-  

930528 691  1.8-  0.8+    080713 J47 (2.1+  0.5-)   081004 106  0.2-  0.8-  

930722 691  1.0-  2.0+    080713 J47 (2.5+  0.8-)   081004 A71  0.1+  0.6-  

930723 691  1.1-  2.0+    080715 J47  1.4+  1.0-    081004 106  0.3-  0.5-  

930814 691  1.4-  1.5+    080715 J47  1.3+  0.9-    081004 A71  0.2-  0.7-  

930814 691  0.9-  1.3+    080715 J47  1.8+  0.8-    081004 A71  0.3-  0.6-  

930825 360 (3.3-  0.2+)   080722 J47  0.0   0.1-    081004 106  0.3+  0.4-  

930825 360 (3.2-  0.0 )   080722 J47 (3.2-  0.3+)   081005 106  0.2-  0.5-  

930825 360 (3.3-  0.2+)   080727 372  1.9+  1.0-    081005 A77  0.1+  0.5-  

930910 691  1.1-  1.4+    080728 703  1.5+  1.8-    081005 A77  0.0   0.7-  

930910 691  1.2-  1.4+    080728 703  0.6+  1.3-    081005 A77  0.1-  0.6-  

930910 691  1.4-  1.6+    080728 703 (0.7+  2.4-)   081006 B26  0.4+  0.6-  

930919 557 (2.8-  0.8-)   080728 703  1.1+  1.1-    081007 G96  0.4-  0.9-  

930919 557  1.8-  0.0     080728 349  1.4+  1.4-    081007 G96  0.3-  1.0-  

930919 557  1.9-  1.6+    080728 349  1.2+  1.6-    081007 G96  0.2+  1.1-  

930919 557 (1.4-  2.2+)   080802 J47  0.3-  1.6-    081010 J47  0.4-  0.3+  

930919 557 (4.0-  3.1+)   080802 J47 (0.2-  2.3-)   081010 J47  1.2-  1.1-  

930925 360  0.7-  1.5+    080802 J47  0.1+  1.9-    081010 J47  1.8-  0.6+  

930925 360  1.0-  1.6+    080802 J47 (1.7+  3.5-)   081010 J59  0.6-  0.8-  

930926 360  0.4-  1.8+    080803 704  1.6+  1.3-    081010 J59  0.0   0.4-  

930926 360 (0.5-  2.1+)   080803 704  0.6+  1.3-    081010 J59  0.2-  0.5-  

931011 900 (0.7-  2.8+)   080803 704  0.7-  0.6-    081011 J96  0.1-  0.1+  

931011 360 (0.3-  2.7+)   080803 704  0.5-  0.1-    081011 J96  0.0   0.1-  

931011 360 (1.0-  2.9+)   080803 704  0.1-  1.1-    081011 J96  0.1+  0.1-  

931011 900 (0.6-  4.2+)   080803 215  0.1+  1.1-    081011 900  0.3-  0.3-  

931013 675  0.3-  1.0+    080803 215  0.4+  1.4-    081011 900  0.2-  0.4-  

931013 675  0.5+  1.2+    080803 215 (1.2+  2.3-)   081012 J47  0.1-  0.4-  

931016 107 (0.9+  4.3+)   080806 J51  0.3+  1.2-    081012 J47  0.1+  0.2-  

931019 360 (0.4-  2.5+)   080806 J51  1.9+  1.1-    081012 J47  0.8+  0.3-  

931019 360  0.5-  1.9+    080806 J51 (2.6+  0.9-)   081012 J47  0.8+  0.3-  

931022 691 (0.8-  2.5+)   080807 629 (2.5+  0.6-)   081013 585  0.2-  0.7-  

931022 691 (0.7-  2.3+)   080807 629 (2.5+  1.3-)   081013 585  0.1-  0.9-  

931022 691  1.1-  2.0+    080807 629  1.3+  1.0-    081013 585  0.2+  1.0-  

931024 691  0.5-  1.8+    080812 J51  0.7+  1.6-    081013 585  0.3-  0.9-  

931024 691  0.7-  1.4+    080812 J51  0.6+  1.7-    081013 585  0.3-  0.8-  

931024 691  0.6-  1.9+    080812 J51  1.3+  1.7-    081018 349  0.3-  0.5+  

931207 360 (0.8-  2.1+)   080814 372  0.5+  0.3-    081018 349  0.2-  0.4+  

931207 360  0.1-  1.5+    080816 J47 (2.1-  0.1-)   081018 349  0.4-  0.4+  

931207 360 (0.7+  2.3+)   080816 J47 (2.5-  1.3-)   081018 900  0.4+  0.0   

931212 360  1.5+  1.9+    080816 J47 (3.4-  1.5-)   081018 900  0.2-  0.2-  

931212 360  0.7+  0.9+    080817 J51 (2.4-  2.0-)   081020 J38  0.5-  0.0   

1994/                     080817 J51  0.7-  1.8-    081020 J38  0.2-  0.1+  

940105 360  0.9+  1.7+    080817 J51  0.8+  1.6-    081020 J38  0.0   0.1+  

940105 360  0.6+  1.6+    080819 J51  0.6+  1.1-    081021 B30  1.4-  0.7+  

940107 691  0.9+  1.4+    080819 J51  0.2+  1.1-    081021 B30  0.4+  0.0   

940107 691  1.5+  1.9+    080819 J51  0.1-  0.9-    081021 B30  1.2-  0.0   

940107 691  0.9+  1.7+    080824 J52  0.2+  1.4-    081021 B42  0.1-  0.0   

940109 360 (1.3+  2.1+)   080824 J52  0.1-  1.5-    081021 B42  0.0   0.1-  

940109 360 (3.0+  2.1+)   080824 J52  0.5-  1.8-    081021 B42  0.0   0.2+  

940202 360 (2.0+  2.2+)   080825 J47 (3.2-  3.2-)   081024 844  0.0   0.4-  

940202 360 (1.1+  2.1+)   080825 J47 (2.3-  2.5-)   081024 844  0.4-  0.6-  

940210 691  1.0+  1.4+    080825 J47  1.0+  1.6-    081024 844  0.2-  0.2-  

940210 691  0.7+  0.7+    080825 J47  0.9+  1.3-    081024 J47  0.5+  0.2-  

940210 691  0.5+  1.1+    080826 J51  0.6+  1.2-    081024 J47  0.5+  0.1-  

2000/                     080826 J51  0.8+  1.2-    081024 J47  0.1-  0.3+  

000422 809  0.2-  0.8-    080826 J51  0.4+  1.5-    081025 945  0.4-  0.5-  

000422 809  0.1+  0.8-    080828 215  0.1+  1.1-    081025 945  0.9-  0.2-  

000422 809  0.3+  0.6-    080828 215  0.7+  1.3-    081025 945  0.5-  0.4-  

000422 809  1.2-  1.1-    080828 215  0.1-  1.3-    081025 945  1.5-  0.4-  

000422 809  0.2+  0.9-    080828 J51  1.1-  1.8-    081025 945  0.2+  0.9-  

000422 809  0.1+  0.7-    080828 J51  1.5+  1.5-    081025 704  1.0+  1.5+  

000502 809  0.1+  0.8-    080830 213  0.1-  0.8-    081025 704  1.0+  1.3-  

000502 809  0.4+  0.7-    080830 213  1.3+  0.6-    081025 704  1.1+  1.1-  

000502 809  0.4+  0.3-    080830 B37  0.1-  1.3-    081025 703 (8.5-  0.6+) 

000502 809  0.9+  0.5-    080830 B37  1.4+  0.8-    081025 704  0.9+  1.0-  

000502 809  0.6+  0.8-    080830 B37  1.7+  0.5-    081025 704 (4.3-  0.8-) 

000607 695  0.3-  0.9-    080830 B37  1.1+  0.6-    081025 235  0.1-  0.1-  

000607 695  0.3-  0.5-    080830 844  0.3+  1.8-    081025 B49  0.1+  0.0   

000607 695  0.2-  0.6-    080830 844  1.4-  0.0     081025 B49  0.1+  0.9-  

000726 360  0.1-  1.3-    080830 844  0.1+  1.8-    081025 B49  0.3+  0.4-  

000726 360  0.7-  1.2-    080830 844  0.4-  0.0     081025 B49  0.2+  0.7-  

000726 360  0.8-  1.6-    080831 J51  0.0   1.9-    081025 J38  0.2-  0.4+  

000801 704  0.4-  1.8-    080831 J51  0.2+  1.5-    081025 J38  0.3-  0.4+  

000801 704  0.1-  0.4-    080831 J51  0.3+  1.6-    081025 J38  0.8-  0.8+  

000801 704  0.0   1.6-    080831 372  0.0   1.2-    081026 232  0.0   0.4-  

000801 704  0.6-  1.7-    080903 J47  1.4+  0.7-    081026 232  0.2-  0.3-  

000807 360  0.4-  1.0-    080903 J47  1.5+  0.9-    081026 232  0.0   0.0   

000807 360  0.5-  0.9-    080903 J47  1.4+  0.8-    081026 945  1.1-  0.6-  

000807 360  0.1-  1.2-    080903 J47  0.9+  0.8-    081026 945  0.9-  0.1-  

000820 699  0.8+  0.8+    080905 J75 (4.1-  1.3-)   081026 945  0.6-  0.2-  

000820 699  0.5-  0.0     080905 J75 (2.4-  2.2-)   081026 945  0.5-  0.1-  

000820 699  0.3+  0.4-    080905 J75 (2.2-  1.3-)   081026 945  1.1-  0.1-  

000820 699  0.4+  0.3-    080905 J75  1.9-  2.0-    081026 104  0.4-  0.2+  

000823 360  0.4+  0.8-    080905 J75 (3.3-  1.7-)   081026 104  0.2-  0.2+  

000823 360  0.5+  1.1-    080905 J75 (4.7-  2.3-)   081026 B42  0.5+  0.0   

000823 360  0.5+  1.3-    080908 900  0.4+  1.4-    081026 104  0.2-  0.1+  

000824 867  1.2-  1.2-    080908 900  1.1+  1.2-    081026 B42  0.3-  0.7-  

000824 867  0.7+  0.4-    080909 A71  0.2+  1.6-    081026 B42  0.1-  0.3+  

000824 867  0.0   0.7-    080909 A71  0.0   1.3-    081028 H45  0.2-  0.2-  

000824 867  0.1-  0.7-    080909 A71  0.0   1.3-    081028 H45  0.1-  0.2-  

000920 360  0.3-  0.1-    080910 130  0.4+  0.4-    081028 H45  0.2+  0.0   

000920 360  0.1+  0.1-    080910 130  0.8+  1.2-    081028 H45  0.3+  0.5-  

000920 360  0.3+  0.5-    080910 130  0.8+  1.0-    081028 H45  0.5+  0.3-  

001118 704  0.4+  0.5+    080910 130  0.8+  1.0-    081028 H45  0.1-  0.2+  

001118 704  1.6+  1.2+    080917 204  0.1+  1.1-    081030 J47  0.1+  0.0   

001118 704  1.7-  0.4+    080917 204  0.1+  0.9-    081030 J47  0.3+  0.2+  

001118 704  0.9+  1.7+    080921 J47  0.5+  0.3-    081030 J47  0.1+  0.1-  

2001/                     080921 J47  0.8+  0.5-    081030 J47  0.2+  0.3+  

011014 402  1.1+  1.3+    080921 J47  0.6+  1.0-    081030 900  0.1-  0.0   

011014 402  0.9+  1.2+    080922 349  0.3-  1.0-    081030 900  0.5-  0.2+  

011026 402 (0.4-  2.1+)   080922 349  0.4-  0.9-    081031 H45  0.3-  0.3+  

011026 402  0.4-  1.8+    080922 349  0.4-  1.0-    081031 H45  0.1-  0.3+  

011026 402  0.2+  2.0+    080922 900  0.4+  1.0-    081031 H45  0.2+  0.4+  

011124 360  1.3+  1.4+    080922 900  0.6+  1.0-    081031 H45  0.1+  0.0   

011124 360  1.1+  1.7+    080922 352  0.4-  0.7-    081031 H45  0.0   0.5+  

011205 170  0.0   1.3+    080922 352  0.4+  0.9-    081031 H45  0.0   0.2+  

011206 170 (1.8+  2.5+)   080923 J29  0.9-  0.8-                            



NAKANO

         **** Don't distribute anyone except personal use only ****

                (C) Copyright 2008 OAA/ComputingSection

write mail from CFAD0::NAKANO on 2008-11-05 05:02:00(JST).

 





  61P/Shajn-Schaldach 

Epoch 2001 May 11.0 TT = JDT 2452040.5  

T 2001 May 9.00892 TT                                   Nakano

q   2.3301008            (2000.0)            P               Q

n   0.13218903     Peri.  216.62389     +0.91626673     -0.39984554

a   3.8165630      Node   166.88050     +0.38805897     +0.87115633

e   0.3894767      Incl.    6.08444     +0.09932532     +0.28497401

P   7.46

From 132 observations 1971-2000, mean residual 0".93.  Nongravitational

   parameters A1 = +1.21 +/- 0.23, A2 = -0.1340 +/- 0.0049.



NAKANO

         **** Don't distribute anyone except personal use only ****

                (C) Copyright 2000 OAA/ComputingSection

write mail from CFAD0::NAKANO on 2000-09-12 01:29:28(JST).

 



–ß‚è‚Ü‚·B